Weather History for Krakow, Poland

Change the Weather History Date:

Friday, May 3, 2013

  Actual Average Record
Temperature  
Mean Temperature 56 °F -  
Max Temperature 64 °F 66 °F - ()
Min Temperature 48 °F 46 °F - ()
Degree Days  
Heating Degree Days 9    
Growing Degree Days 6 (Base 50)    
Moisture  
Dew Point 55 °F    
Average Humidity 92    
Maximum Humidity 100    
Minimum Humidity 77    
Precipitation  
Precipitation 0.31 in 0.11 in - ()
Sea Level Pressure  
Sea Level Pressure 29.89 in    
Wind  
Wind Speed 6 mph ()    
Max Wind Speed 16 mph    
Max Gust Speed -    
Visibility 3.5 miles    
Events Rain , Thunderstorm    
T = Trace of Precipitation, MM = Missing Value Source: Averaged Metar Reports

Daily Weather History Graph

Daily Weather History Graph

Search for Another Location

Airport:

Trip Planner

Search our weather history database for the weather conditions in past years. The results will help you decide how hot, cold, wet, or windy it might be!

Date:

Astronomy

May. 03, 2013 Rise Set
Actual Time 5:13 AM CEST 8:02 PM CEST
Civil Twilight 4:36 AM CEST 8:40 PM CEST
Nautical Twilight 3:48 AM CEST 9:28 PM CEST
Astronomical Twilight 2:51 AM CEST 10:26 PM CEST
Moon 2:06 AM CEST (5/3) 1:00 PM CEST (5/3)
Length of Visible Light 16h 03m
Length of Day
14h 49m
Last Quarter, 40% of the Moon is Illuminated
May 3
Last Quarter
May 10
New
May 18
First Quarter
May 25
Full
May 31
Last Quarter

Hourly Weather History & Observations

Time (CEST) Temp. Dew Point Humidity Pressure Visibility Wind Dir Wind Speed Gust Speed Precip Events Conditions
12:00 AM 55.4 °F 55.4 °F 100% 30.04 in 1.1 mi South 6.9 mph - N/A Rain Rain Showers
12:30 AM 55.4 °F 55.4 °F 100% 30.01 in 1.1 mi Variable 2.3 mph - N/A Rain , Thunderstorm Rain Showers
1:00 AM 55.4 °F 53.6 °F 94% 30.01 in 1.1 mi Variable 1.2 mph - N/A Rain , Thunderstorm Rain Showers
1:30 AM 55.4 °F 53.6 °F 94% 29.98 in 1.1 mi NE 8.1 mph - N/A Rain , Thunderstorm Light Rain Showers
2:00 AM 56 °F 55 °F 96% 29.96 in 1 mi ENE 8.9 mph - - Rain , Thunderstorm Thunderstorms and Rain
2:00 AM 55.4 °F 55.4 °F 100% 29.95 in 1.2 mi ENE 8.1 mph - N/A Rain , Thunderstorm Light Rain Showers
2:30 AM 55.4 °F 55.4 °F 100% 29.95 in 1.2 mi East 9.2 mph - N/A Rain , Thunderstorm Light Rain Showers
3:00 AM 55.4 °F 55.4 °F 100% 29.95 in 1.2 mi NE 9.2 mph - N/A Rain Rain
3:30 AM 55.4 °F 55.4 °F 100% 29.92 in 1.9 mi NE 6.9 mph - N/A Rain Light Rain
4:00 AM 55.4 °F 55.4 °F 100% 29.92 in 1.9 mi ENE 8.1 mph - N/A   Mostly Cloudy
4:30 AM 55.4 °F 55.4 °F 100% 29.89 in 1.9 mi ENE 5.8 mph - N/A   Mostly Cloudy
5:00 AM 56 °F 55 °F 97% 29.91 in 2 mi ENE 4.5 mph - -   Mist
5:00 AM 55.4 °F 55.4 °F 100% 29.89 in 1.9 mi East 3.5 mph - N/A   Mostly Cloudy
5:30 AM 55.4 °F 55.4 °F 100% 29.89 in 1.9 mi ENE 5.8 mph - N/A   Mostly Cloudy
6:00 AM 55.4 °F 55.4 °F 100% 29.89 in 1.9 mi ENE 5.8 mph - N/A   Mostly Cloudy
6:30 AM 55.4 °F 55.4 °F 100% 29.86 in 1.9 mi NE 8.1 mph - N/A   Mostly Cloudy
7:00 AM 55.4 °F 55.4 °F 100% 29.89 in 1.9 mi NE 6.9 mph - N/A   Mostly Cloudy
7:30 AM 57.2 °F 55.4 °F 94% 29.89 in 1.9 mi ENE 8.1 mph - N/A   Mostly Cloudy
8:00 AM 57 °F 56 °F 94% 29.91 in 2 mi ENE 8.9 mph - -   Mist
8:00 AM 57.2 °F 55.4 °F 94% 29.89 in 1.9 mi ENE 6.9 mph - N/A   Mostly Cloudy
8:30 AM 57.2 °F 55.4 °F 94% 29.89 in 1.9 mi ENE 6.9 mph - N/A   Mostly Cloudy
9:00 AM 59.0 °F 55.4 °F 88% 29.89 in 3.1 mi ENE 6.9 mph - N/A   Mostly Cloudy
9:30 AM 59.0 °F 55.4 °F 88% 29.89 in 3.7 mi NE 9.2 mph - N/A   Mostly Cloudy
10:00 AM 59.0 °F 55.4 °F 88% 29.89 in 3.7 mi ENE 8.1 mph - N/A   Mostly Cloudy
10:30 AM 60.8 °F 55.4 °F 82% 29.89 in 3.7 mi NE 5.8 mph - N/A   Mostly Cloudy
11:00 AM 62 °F 58 °F 81% 29.89 in 6 mi NNE 4.5 mph - -   Mostly Cloudy
11:00 AM 60.8 °F 55.4 °F 82% 29.89 in 6.2 mi ENE 5.8 mph - N/A   Mostly Cloudy
11:30 AM 60.8 °F 57.2 °F 88% 29.89 in 6.2 mi NNE 5.8 mph - N/A   Mostly Cloudy
12:00 PM 62.6 °F 55.4 °F 77% 29.89 in 6.2 mi Variable 2.3 mph - N/A   Mostly Cloudy
12:30 PM 59.0 °F 57.2 °F 94% 29.86 in 5.0 mi North 4.6 mph - N/A Rain , Thunderstorm Light Rain Showers
1:00 PM 60.8 °F 57.2 °F 88% 29.89 in 6.2 mi East 4.6 mph - N/A   Partly Cloudy
1:30 PM 62.6 °F 59.0 °F 88% 29.89 in 6.2 mi ENE 4.6 mph - N/A   Partly Cloudy
2:00 PM 63 °F 59 °F 83% 29.87 in 6 mi North 6.7 mph - - Rain Light Rain
2:00 PM 62.6 °F 59.0 °F 88% 29.86 in 6.2 mi NNE 6.9 mph - N/A   Mostly Cloudy
2:30 PM 64.4 °F 59.0 °F 83% 29.86 in 6.2 mi NNE 6.9 mph - N/A   Mostly Cloudy
3:00 PM 62.6 °F 57.2 °F 82% 29.86 in 6.2 mi NNE 6.9 mph - N/A   Mostly Cloudy
3:30 PM 64.4 °F 57.2 °F 77% 29.86 in 6.2 mi NE 6.9 mph - N/A   Mostly Cloudy
4:00 PM 62.6 °F 57.2 °F 82% 29.83 in 6.2 mi NE 8.1 mph - N/A Rain Light Rain Showers
4:30 PM 62.6 °F 59.0 °F 88% 29.83 in 6.2 mi NE 6.9 mph - N/A   Mostly Cloudy
5:00 PM 62 °F 59 °F 87% 29.83 in 6 mi East 8.9 mph - - Rain Light Rain Showers
5:00 PM 62.6 °F 59.0 °F 88% 29.83 in 6.2 mi East 5.8 mph - N/A   Mostly Cloudy
5:30 PM 60.8 °F 59.0 °F 94% 29.83 in 6.2 mi East 5.8 mph - N/A   Mostly Cloudy
6:00 PM 60.8 °F 59.0 °F 94% 29.83 in 3.1 mi Variable 2.3 mph - N/A Rain Light Rain Showers
6:30 PM 60.8 °F 59.0 °F 94% 29.83 in 1.2 mi Variable 2.3 mph - N/A Rain Light Rain Showers
7:00 PM 59.0 °F 57.2 °F 94% 29.83 in 3.1 mi SW 8.1 mph - N/A Rain Light Rain Showers
7:30 PM 53.6 °F 53.6 °F 100% 29.83 in 2.5 mi WSW 13.8 mph - N/A   Mostly Cloudy
8:00 PM 53 °F 51 °F 92% 29.87 in 2 mi WSW 11.2 mph - - Rain Light Rain Showers
8:00 PM 53.6 °F 51.8 °F 94% 29.86 in 2.5 mi WSW 9.2 mph - N/A   Mostly Cloudy
8:30 PM 50.0 °F 48.2 °F 94% 29.86 in 3.1 mi WSW 12.7 mph - N/A   Mostly Cloudy
9:00 PM 50.0 °F 48.2 °F 94% 29.86 in 3.1 mi WSW 8.1 mph - N/A   Mostly Cloudy
9:30 PM 50.0 °F 48.2 °F 94% 29.89 in 3.7 mi WSW 12.7 mph - N/A   Mostly Cloudy
10:00 PM 48.2 °F 46.4 °F 93% 29.89 in 3.7 mi West 11.5 mph - N/A   Mostly Cloudy
10:30 PM 48.2 °F 46.4 °F 93% 29.89 in 3.7 mi WSW 11.5 mph - N/A   Mostly Cloudy
11:00 PM 48 °F 47 °F 96% 29.92 in 4 mi WSW 15.7 mph - -   Mist
11:00 PM 48.2 °F 46.4 °F 93% 29.89 in 4.3 mi WSW 13.8 mph - N/A   Mostly Cloudy
11:30 PM 48.2 °F 46.4 °F 93% 29.89 in 5.0 mi WSW 12.7 mph - N/A   Mostly Cloudy